| time (UTC) | temp C | wind direction | speed KPH | gust KPH | rain 1hr cm | rain 24hr cm | rain mn cm | humidity % | barometer mb |
| 20260502163035 | 14 | 301 | 4.8 | 11.3 | 0.00 | 0.00 | 0.00 | 75 | 1016.8 |
| 20260502161536 | 14 | 346 | 1.6 | 4.8 | 0.00 | 0.00 | 0.00 | 75 | 1017.0 |
| 20260502140106 | 11 | 227 | 1.6 | 6.4 | 0.00 | 0.00 | 0.00 | 79 | 1016.1 |
| 20260502130107 | 11 | 159 | 3.2 | 11.3 | 0.00 | 0.00 | 0.00 | 78 | 1015.7 |
| 20260502123032 | 11 | 169 | 8.0 | 16.1 | 0.00 | 0.00 | 0.00 | 79 | 1015.7 |
| 20260502121529 | 11 | 161 | 8.0 | 11.3 | 0.00 | 0.00 | 0.00 | 80 | 1015.8 |
| 20260502113036 | 11 | 159 | 8.0 | 14.5 | 0.00 | 0.00 | 0.00 | 80 | 1016.1 |
| 20260502111533 | 11 | 136 | 6.4 | 12.9 | 0.00 | 0.00 | 0.00 | 80 | 1016.2 |
| 20260502110039 | 11 | 140 | 4.8 | 9.7 | 0.00 | 0.00 | 0.00 | 79 | 1016.2 |
| 20260502104532 | 11 | 201 | 6.4 | 14.5 | 0.00 | 0.00 | 0.00 | 77 | 1016.2 |
| 20260502101531 | 11 | 142 | 3.2 | 8.0 | 0.00 | 0.00 | 0.00 | 76 | 1016.6 |
| 20260502090107 | 12 | 224 | 3.2 | 11.3 | 0.00 | 0.00 | 0.00 | 74 | 1016.8 |
| 20260502071535 | 11 | 140 | 4.8 | 9.7 | 0.00 | 0.00 | 0.00 | 75 | 1017.1 |
| 20260502070106 | 12 | 157 | 4.8 | 8.0 | 0.00 | 0.00 | 0.00 | 75 | 1017.0 |
| 20260502064533 | 12 | 170 | 6.4 | 11.3 | 0.00 | 0.00 | 0.00 | 73 | 1017.1 |
| 20260502063035 | 12 | 144 | 4.8 | 9.7 | 0.00 | 0.00 | 0.00 | 73 | 1017.1 |
| 20260502060031 | 12 | 166 | 8.0 | 12.9 | 0.00 | 0.00 | 0.00 | 73 | 1016.9 |
| 20260502054535 | 12 | 157 | 6.4 | 11.3 | 0.00 | 0.00 | 0.00 | 74 | 1016.9 |
| 20260502053045 | 13 | 125 | 4.8 | 8.0 | 0.00 | 0.00 | 0.00 | 73 | 1016.8 |
| 20260502051531 | 13 | 152 | 3.2 | 11.3 | 0.00 | 0.00 | 0.00 | 72 | 1017.0 |
| 20260502050035 | 13 | 189 | 6.4 | 9.7 | 0.00 | 0.00 | 0.00 | 72 | 1016.8 |
| 20260502044534 | 13 | 222 | 1.6 | 6.4 | 0.00 | 0.00 | 0.00 | 71 | 1016.6 |
| 20260502043147 | 13 | 159 | 3.2 | 8.0 | 0.00 | 0.00 | 0.00 | 70 | 1016.5 |
| 20260502041531 | 14 | 112 | 4.8 | 9.7 | 0.00 | 0.00 | 0.00 | 69 | 1016.2 |
| 20260502040107 | 15 | 89 | 6.4 | 11.3 | 0.00 | 0.00 | 0.00 | 69 | 1016.2 |
| 20260502034535 | 16 | 206 | 6.4 | 12.9 | 0.00 | 0.00 | 0.00 | 63 | 1015.9 |
| 20260502033032 | 17 | 102 | 6.4 | 14.5 | 0.00 | 0.00 | 0.00 | 59 | 1015.9 |
| 20260502031534 | 17 | 94 | 4.8 | 11.3 | 0.00 | 0.00 | 0.00 | 59 | 1016.2 |
| 20260502030030 | 17 | 156 | 4.8 | 11.3 | 0.00 | 0.00 | 0.00 | 57 | 1015.8 |
| 20260502023035 | 18 | 175 | 6.4 | 14.5 | 0.00 | 0.00 | 0.00 | 54 | 1015.1 |
| 20260502021605 | 20 | 178 | 1.6 | 4.8 | 0.00 | 0.00 | 0.00 | 51 | 1015.1 |
| 20260502020035 | 20 | 225 | 0.0 | 3.2 | 0.00 | 0.00 | 0.00 | 48 | 1015.1 |
| 20260502013142 | 21 | 254 | 0.0 | 3.2 | 0.00 | 0.00 | 0.00 | 42 | 1015.2 |
| 20260502011530 | 21 | 271 | 1.6 | 4.8 | 0.00 | 0.00 | 0.00 | 42 | 1015.1 |
| 20260502004535 | 22 | 307 | 3.2 | 8.0 | 0.00 | 0.00 | 0.00 | 40 | 1015.1 |
| 20260502003030 | 22 | 286 | 3.2 | 11.3 | 0.00 | 0.00 | 0.00 | 39 | 1015.2 |
| 20260502001529 | 22 | 334 | 6.4 | 11.3 | 0.00 | 0.00 | 0.00 | 40 | 1015.2 |
| 20260502000037 | 22 | 9 | 4.8 | 11.3 | 0.00 | 0.00 | 0.00 | 41 | 1015.4 |
| 20260501233144 | 21 | 297 | 1.6 | 8.0 | 0.00 | 0.00 | 0.00 | 43 | 1015.7 |
| 20260501231652 | 21 | 345 | 6.4 | 11.3 | 0.00 | 0.00 | 0.00 | 41 | 1016.0 |
| 20260501231643 | 22 | 329 | 4.8 | 14.5 | 0.00 | 0.00 | 0.00 | 41 | 1016.1 |
| 20260501224534 | 22 | 296 | 4.8 | 17.7 | 0.00 | 0.00 | 0.00 | 41 | 1016.3 |
| 20260501223035 | 22 | 318 | 4.8 | 14.5 | 0.00 | 0.00 | 0.00 | 42 | 1016.4 |
| 20260501221535 | 22 | 328 | 8.0 | 16.1 | 0.00 | 0.00 | 0.00 | 42 | 1016.6 |
| 20260501214532 | 22 | 319 | 6.4 | 17.7 | 0.00 | 0.00 | 0.00 | 42 | 1016.8 |
| 20260501213030 | 22 | 292 | 6.4 | 14.5 | 0.00 | 0.00 | 0.00 | 42 | 1016.9 |
| 20260501211530 | 21 | 321 | 4.8 | 12.9 | 0.00 | 0.00 | 0.00 | 42 | 1017.0 |
| 20260501204537 | 21 | 312 | 6.4 | 14.5 | 0.00 | 0.00 | 0.00 | 42 | 1017.2 |
| 20260501203034 | 20 | 324 | 4.8 | 11.3 | 0.00 | 0.00 | 0.00 | 43 | 1017.4 |
| 20260501201536 | 20 | 353 | 4.8 | 9.7 | 0.00 | 0.00 | 0.00 | 44 | 1017.6 |
| 20260501200151 | 19 | 305 | 3.2 | 9.7 | 0.00 | 0.00 | 0.00 | 46 | 1017.8 |
| 20260501194536 | 18 | 322 | 4.8 | 11.3 | 0.00 | 0.00 | 0.00 | 46 | 1017.9 |
| 20260501193033 | 18 | 310 | 6.4 | 12.9 | 0.00 | 0.00 | 0.00 | 44 | 1017.9 |
| 20260501191536 | 18 | 315 | 4.8 | 11.3 | 0.00 | 0.00 | 0.00 | 44 | 1017.9 |
| 20260501190036 | 18 | 292 | 4.8 | 9.7 | 0.00 | 0.00 | 0.00 | 45 | 1018.0 |
| 20260501184534 | 19 | 269 | 4.8 | 11.3 | 0.00 | 0.00 | 0.00 | 42 | 1018.2 |
| 20260501183106 | 19 | 262 | 6.4 | 11.3 | 0.00 | 0.00 | 0.00 | 43 | 1018.3 |
| 20260501181538 | 18 | 266 | 4.8 | 9.7 | 0.00 | 0.00 | 0.00 | 43 | 1018.3 |